EUTELSAT KA-SAT 9A

Last updated on Thu Nov 21 2024 00:02:41 GMT+0000 (Coordinated Universal Time)

1 37258U 10069A 24324.65376490 .00000063 00000+0 00000+0 0 9993 2 37258 0.0703 293.1362 0001532 343.0306 27.3766 1.00268797 38241
UTC large
Height (km)
Speed (km/s)
/
Latitude / Longitude
Inclination (degrees)
Orbital Period (minutes)
Azimuth
Elevation
Range (km)
Doppler Factor

Next 0 passes for location: London (51.5072 / 0.1276)

Sorry there are no passes over London.